Date String (YYYY-MM-DD hh:mm:ss) UTC,Instrument flags,Ambient pressure (hPa),Sample flow (lpm),Bypass flow (lpm),Sample temperature (°C),Ambient temperature (°C),ASC tube jacket temperature (°C),LED temperature (°C),Box temperature (°C),Sample RH (%),Span deviation,Mass concentration (μg/m³),Mass concentration (μg/m³),Mass concentration (μg/m³)
DateTimeUTC,F1_M11,P_M11,Q1_M11,Q2_M11,T1_M11,T2_M11,T3_M11,T4_M11,T5_M11,U1_M11,ZSPAN_M11,X0_M11,X2_M11,X1_M11
2022-12-21 16:00:00,,0818.8,4.95,0.00,22.3,21.1,00.0,31.1,24.1,07.9,0000.0,0002.26,0000.92,0000.66
2022-12-21 16:01:00,,0818.6,5.03,0.00,22.3,21.0,00.0,31.1,24.0,07.6,0000.0,0002.41,0000.92,0000.65
2022-12-21 16:02:00,,0818.5,5.03,0.00,22.3,20.9,00.0,31.1,24.0,07.7,0000.0,0003.02,0000.89,0000.63
2022-12-21 16:03:00,,0818.6,5.00,0.00,22.3,20.9,00.0,31.1,24.0,07.9,0000.0,0003.38,0000.86,0000.61
2022-12-21 16:04:00,,0818.6,4.97,0.00,22.2,20.9,00.0,31.1,23.9,07.8,0000.0,0003.38,0000.85,0000.58
2022-12-21 16:05:00,,0818.8,5.01,0.00,22.2,20.9,00.0,31.1,24.0,07.8,0000.0,0003.03,0000.81,0000.56
2022-12-21 16:06:00,,0818.5,5.01,0.00,22.2,20.9,00.0,31.1,24.0,07.8,0000.0,0002.76,0000.79,0000.55
2022-12-21 16:07:00,,0818.8,4.98,0.00,22.2,20.9,00.0,31.1,24.0,07.9,0000.0,0002.58,0000.76,0000.54
2022-12-21 16:08:00,,0818.8,4.98,0.00,22.2,20.9,00.0,31.1,24.0,08.1,0000.0,0002.49,0000.74,0000.54
2022-12-21 16:09:00,,0819.0,5.02,0.00,22.2,20.9,00.0,31.1,23.9,08.2,0000.0,0002.53,0000.79,0000.56
2022-12-21 16:10:00,,0819.0,5.00,0.00,22.2,20.8,00.0,31.1,23.9,07.9,0000.0,0002.44,0000.79,0000.57
2022-12-21 16:11:00,,0818.6,4.96,0.00,22.2,20.9,00.0,31.1,23.9,07.8,0000.0,0002.71,0000.78,0000.56
2022-12-21 16:12:00,,0818.4,5.03,0.00,22.1,20.8,00.0,31.0,23.8,07.6,0000.0,0003.44,0000.80,0000.57
2022-12-21 16:13:00,,0818.4,5.02,0.00,22.1,20.8,00.0,31.0,23.8,07.8,0000.0,0003.20,0000.83,0000.57
2022-12-21 16:14:00,,0818.3,4.96,0.00,22.1,20.7,00.0,31.0,23.7,07.8,0000.0,0003.60,0000.87,0000.57
2022-12-21 16:15:00,,0818.3,5.06,0.00,22.1,20.7,00.0,31.0,23.7,07.9,0000.0,0003.78,0000.90,0000.58
2022-12-21 16:16:00,,0818.1,5.03,0.00,22.1,20.7,00.0,31.0,23.7,07.9,0000.0,0003.80,0000.90,0000.58
2022-12-21 16:17:00,,0818.0,5.01,0.00,22.1,20.7,00.0,31.0,23.7,07.9,0000.0,0003.85,0000.93,0000.58
2022-12-21 16:18:00,,0818.5,4.97,0.00,22.1,20.6,00.0,31.0,23.8,07.9,0000.0,0004.41,0000.95,0000.58
2022-12-21 16:19:00,,0818.4,4.98,0.00,22.1,20.6,00.0,31.0,23.8,07.9,0000.0,0006.65,0000.99,0000.58
2022-12-21 16:20:00,,0818.3,5.02,0.00,22.0,20.6,00.0,31.0,23.8,08.0,0000.0,0006.90,0001.01,0000.57
2022-12-21 16:21:00,,0818.5,5.02,0.00,22.0,20.6,00.0,31.0,23.7,08.1,0000.0,0006.85,0000.96,0000.55
2022-12-21 16:22:00,,0818.0,5.00,0.00,22.0,20.6,00.0,31.0,23.7,08.0,0000.0,0007.09,0000.95,0000.52
2022-12-21 16:23:00,,0817.7,4.97,0.00,22.0,20.5,00.0,31.0,23.7,07.7,0000.0,0008.37,0001.11,0000.51
2022-12-21 16:24:00,,0817.8,5.01,0.00,22.0,20.5,00.0,30.9,23.6,07.8,0000.0,0008.92,0001.18,0000.51
2022-12-21 16:25:00,,0817.7,5.02,0.00,22.0,20.4,00.0,30.9,23.6,07.9,0000.0,0008.87,0001.21,0000.52
2022-12-21 16:26:00,,0817.8,5.02,0.00,22.0,20.4,00.0,30.9,23.6,07.9,0000.0,0008.59,0001.26,0000.53
2022-12-21 16:27:00,,0817.7,4.96,0.00,21.9,20.4,00.0,30.9,23.6,08.0,0000.0,0008.50,0001.30,0000.53
2022-12-21 16:28:00,,0817.6,4.99,0.00,21.9,20.4,00.0,30.9,23.5,08.0,0000.0,0008.45,0001.28,0000.53
2022-12-21 16:29:00,,0817.4,5.02,0.00,21.9,20.3,00.0,30.8,23.5,07.9,0000.0,0008.15,0001.25,0000.53
2022-12-21 16:30:00,,0817.2,5.03,0.00,21.9,20.3,00.0,30.8,23.5,07.9,0000.0,0006.70,0001.28,0000.53
2022-12-21 16:31:00,,0817.2,5.02,0.00,21.9,20.3,00.0,30.8,23.5,07.9,0000.0,0007.09,0001.32,0000.55
2022-12-21 16:32:00,,0817.0,4.99,0.00,21.9,20.4,00.0,30.8,23.5,07.9,0000.0,0007.71,0001.42,0000.56
2022-12-21 16:33:00,,0817.1,4.99,0.00,21.9,21.4,00.0,30.7,23.8,07.8,0000.0,0007.77,0001.56,0000.56
2022-12-21 16:34:00,,0817.0,5.04,0.00,22.1,22.5,00.0,30.8,24.1,07.8,0000.0,0006.62,0001.47,0000.56
2022-12-21 16:35:00,,0816.9,4.95,0.00,22.2,22.4,00.0,30.8,24.2,07.8,0000.0,0005.58,0001.48,0000.57
2022-12-21 16:36:00,,0816.8,5.03,0.00,22.2,22.0,00.0,30.9,24.2,07.7,0000.0,0006.57,0001.56,0000.57
2022-12-21 16:37:00,,0816.8,4.99,0.00,22.2,21.5,00.0,30.9,24.1,07.7,0000.0,0007.91,0001.68,0000.57
2022-12-21 16:38:00,,0817.0,4.97,0.00,22.2,21.2,00.0,30.9,23.9,07.6,0000.0,0008.62,0001.70,0000.57
2022-12-21 16:39:00,,0816.7,5.02,0.00,22.1,20.9,00.0,30.9,23.9,07.6,0000.0,0009.14,0001.80,0000.56
2022-12-21 16:40:00,,0816.6,5.02,0.00,22.1,20.7,00.0,30.9,23.8,07.7,0000.0,0010.44,0001.93,0000.56
2022-12-21 16:41:00,,0816.7,5.01,0.00,22.1,20.5,00.0,30.9,23.7,07.7,0000.0,0011.30,0001.96,0000.56
2022-12-21 16:42:00,,0816.6,4.98,0.00,22.0,20.3,00.0,30.9,23.6,07.7,0000.0,0011.79,0002.03,0000.56
2022-12-21 16:43:00,,0816.7,4.99,0.00,22.0,20.2,00.0,30.9,23.5,07.7,0000.0,0011.85,0002.01,0000.55
2022-12-21 16:44:00,,0816.7,5.03,0.00,21.9,20.5,00.0,30.8,23.6,07.7,0000.0,0012.51,0001.95,0000.54
2022-12-21 16:45:00,,0816.6,5.01,0.00,22.0,21.7,00.0,30.8,23.9,07.7,0000.0,0014.99,0001.97,0000.54
2022-12-21 16:46:00,,0816.9,4.96,0.00,22.2,22.5,00.0,30.8,24.2,07.7,0000.0,0014.65,0001.87,0000.53
2022-12-21 16:47:00,,0816.8,5.02,0.00,22.2,22.2,00.0,30.9,24.3,07.7,0000.0,0014.02,0001.70,0000.52
2022-12-21 16:48:00,,0816.8,4.95,0.00,22.3,21.9,00.0,31.0,24.2,07.8,0000.0,0013.03,0001.52,0000.50
2022-12-21 16:49:00,,0816.7,5.01,0.00,22.2,21.5,00.0,31.0,24.0,07.7,0000.0,0012.21,0001.43,0000.49
2022-12-21 16:50:00,,0816.8,5.03,0.00,22.2,21.3,00.0,31.0,24.0,07.8,0000.0,0011.67,0001.31,0000.49
2022-12-21 16:51:00,,0816.7,5.00,0.00,22.2,21.1,00.0,31.0,24.0,07.7,0000.0,0010.85,0001.21,0000.48
2022-12-21 16:52:00,,0816.8,4.96,0.00,22.2,21.0,00.0,31.0,24.0,07.6,0000.0,0009.84,0001.11,0000.47
2022-12-21 16:53:00,,0817.1,5.02,0.00,22.2,20.8,00.0,31.0,23.9,07.7,0000.0,0009.06,0000.96,0000.46
2022-12-21 16:54:00,,0816.9,5.03,0.00,22.2,20.7,00.0,31.0,23.7,07.7,0000.0,0008.53,0000.85,0000.44
2022-12-21 16:55:00,,0817.0,4.98,0.00,22.1,20.7,00.0,31.0,23.7,07.7,0000.0,0007.05,0000.75,0000.43
2022-12-21 16:56:00,,0817.0,4.97,0.00,22.1,20.6,00.0,31.0,23.7,07.7,0000.0,0003.70,0000.72,0000.41
2022-12-21 16:57:00,,0817.0,5.02,0.00,22.1,20.6,00.0,31.0,23.8,07.7,0000.0,0003.56,0000.71,0000.41
2022-12-21 16:58:00,,0816.9,5.03,0.00,22.0,20.5,00.0,31.0,23.7,07.7,0000.0,0003.38,0000.76,0000.42
2022-12-21 16:59:00,,0817.0,5.01,0.00,22.0,20.4,00.0,30.9,23.7,07.8,0000.0,0003.35,0000.80,0000.43
